Location: Ku?niki
(51.4449°N, 17.8974°E)
Time: 09:25:13
(UTC+00:00)

Cosmos 1340 Rocket - Pass Details

Date: 18 September 2020
Orbit: 529 x 558 km, 81.2° (Epoch: 25 October)

Event Time Altitude Azimuth Distance (km) Brightness Sun altitude
Exits shadow 19:55:13 27° 14° (NNE) 1,060 4.5 -26.4°
Drops below altitude 10° 19:57:09 10° 13° (NNE) 1,819 5.8 -26.6°
Sets 19:59:20 0° 13° (NNE) 2,722 6.7 -26.9°
